TIANWANG 1B (TW-1B)
1 40927U 15051C   19230.82930757 +.00006277 +00000-0 +94860-4 0  9993
2 40927 097.1341 276.1946 0009384 146.9425 333.5124 15.55024450219519
TIANWANG 1A (TW-1A)
1 40928U 15051D   19230.86781339 +.00001608 +00000-0 +40891-4 0  9996
2 40928 097.1423 260.8154 0010459 202.1069 282.8167 15.41026286218590
LAPAN A2
1 40931U 15052B   19230.86619213 +.00000622 +00000-0 -24761-5 0  9997
2 40931 006.0016 340.4084 0013761 302.9710 339.0384 14.76611187210314
LQSAT
1 40958U 15057A   19230.76511220 -.00000006 +00000-0 +66564-5 0  9992
2 40958 097.8948 298.2996 0019178 048.6640 311.6214 14.73086147207808
CHUBUSAT 2
1 41338U 16012B   19230.90619817 +.00000216 +00000-0 +10092-4 0  9990
2 41338 031.0031 115.7395 0013745 348.7076 011.3250 15.00167193192114
CHUBUSAT 3
1 41339U 16012C   19230.80201916 +.00000166 +00000-0 +61291-5 0  9999
2 41339 031.0117 114.4166 0013563 354.7403 005.3086 15.00341173192090
OUFTI-1
1 41458U 16025C   19230.78822960 +.00001483 +00000-0 +78669-4 0  9999
2 41458 098.1022 320.7409 0167099 151.2689 209.7869 15.05925076181769
E-STAR-2
1 41459U 16025D   19230.81928167 +.00000365 +00000-0 +22909-4 0  9994
2 41459 098.1030 320.4017 0168431 152.5147 208.5113 15.05547688181741
AAUSAT 4
1 41460U 16025E   19230.78463311 +.00002162 +00000-0 +11100-3 0  9994
2 41460 098.0990 321.7613 0158251 144.9632 216.2064 15.07485712181872
NUSAT 1
1 41557U 16033B   19230.91141433 +.00000720 +00000-0 +29607-4 0  9993
2 41557 097.4174 318.0572 0015494 083.0326 277.2675 15.27308144179432
BEESAT 4
1 41619U 16040W   19230.87378610 +.00000750 +00000-0 +34585-4 0  9998
2 41619 097.3630 291.9462 0011874 160.4850 199.6844 15.23227185163174
PRATHAM
1 41783U 16059A   19230.74321527 +.00000026 +00000-0 +14244-4 0  9997
2 41783 098.0627 288.9623 0033394 189.7653 170.2904 14.63004279154476
ALSAT 1N
1 41789U 16059G   19230.81647680 +.00000031 +00000-0 +14869-4 0  9991
2 41789 098.0659 291.1627 0028453 178.5534 181.5752 14.64255418154594
NAYIF 1
1 42017U 17008BX  19230.69716020 +.00000805 +00000-0 +34469-4 0  9999
2 42017 097.3992 297.1533 0005064 328.1406 031.9525 15.25638632139227
MAX VALIER SAT
1 42778U 17036P   19230.73549533 +.00000491 +00000-0 +24410-4 0  9998
2 42778 097.3497 287.0434 0012757 018.3163 341.8530 15.22087108119527
